Starlink 34994

operational
NORAD ID: 65924 Int'l Des: 2025-225 Owner: SPXS Country: US Constellation: starlink
NOTLE

About Starlink 34994

Description loading...

Live Position

Loading 3D Globe...

Upcoming Passes

Altitude History

Altitude vs Time

uPlot chart will show altitude changes over time

Two-Line Element Set

1 65924U 25225Q 25310.75988409 .00078560 00000-0 14041-2 0 9991
2 65924 53.1601 18.3352 0001593 71.2713 288.8469 15.49355252 5567
Epoch: Nov 6, 2025 • Age: 9 hours

Current Status

Altitude 433.6 km
Velocity 7.65 km/s
Sub-Earth Point -42.24°S, 147.66°E
Launch Date Oct 8, 2025
Age 29 days
Type internet

Technical Details

Classification Payload
Mass 575.00 kg
Dry Mass 530.00 kg
Total Mass 575.00 kg
Length 0.30 m
Diameter 4.10 m
Span 29.00 m
Shape Box + pan
Manufacturer SPXS
Bus Type Starlink V2MO
Phase Status In Orbit
Owner/State SPXS/US

Large Constellations

Loading constellations...